Valdosta, GA

6:02 PM EST on February 23, 2017 (GMT -0500)
Valdosta Regional

Weather History for KVLD - September, 2012

Change the Weather History Date:

Monday, September 17, 2012

  Actual Average Record
Temperature  
Mean Temperature 82 °F 77 °F  
Max Temperature 92 °F 88 °F 97 °F (2005)
Min Temperature 72 °F 67 °F 55 °F (2001)
Degree Days  
Heating Degree Days 0 0  
Month to date heating degree days 0 0  
Since 1 July heating degree days 0 0  
Cooling Degree Days 17 12  
Month to date cooling degree days 273 235  
Year to date cooling degree days 2755 2089  
Growing Degree Days 32 (Base 50)    
Moisture  
Dew Point 71 °F    
Average Humidity 71    
Maximum Humidity 91    
Minimum Humidity 50    
Precipitation  
Precipitation 0.11 in 0.17 in 1.03 in (1951)
Month to date precipitation 1.69 2.93  
Year to date precipitation 35.21 39.96  
Sea Level Pressure  
Sea Level Pressure 29.97 in    
Wind  
Wind Speed 5 mph (SSE)    
Max Wind Speed 16 mph    
Max Gust Speed 20 mph    
Visibility 9 miles    
Events Rain , Thunderstorm    
T = Trace of Precipitation, MM = Missing Value Source: NWS Daily Summary

Daily Weather History Graph

Daily Weather History Graph

Search for Another Location

Airport or City:

Trip Planner

Search our weather history database for the weather conditions in past years. The results will help you decide how hot, cold, wet, or windy it might be!

Date:

Astronomy

Sep. 17, 2012 Rise Set
Actual Time 7:18 AM EDT 7:35 PM EDT
Civil Twilight 6:54 AM EDT 7:59 PM EDT
Nautical Twilight 6:26 AM EDT 8:27 PM EDT
Astronomical Twilight 5:57 AM EDT 8:56 PM EDT
Moon 8:55 AM EDT (9/17) 8:30 PM EDT (9/17)
Length of Visible Light 13h 04m
Length of Day
12h 16m
Waxing Crescent, 3% of the Moon is Illuminated
Sep 17
Waxing Crescent
Sep 22
First Quarter
Sep 29
Full
Oct 8
Last Quarter
Oct 15
New

Hourly Weather History & Observations

Time (EDT) Temp. Heat Index Dew Point Humidity Pressure Visibility Wind Dir Wind Speed Gust Speed Precip Events Conditions
12:53 AM 73.9 °F - 70.0 °F 87% 30.07 in 10.0 mi Calm Calm - N/A   Partly Cloudy
1:53 AM 73.9 °F - 69.1 °F 85% 30.06 in 10.0 mi Calm Calm - N/A   Clear
2:53 AM 73.0 °F - 68.0 °F 84% 30.05 in 10.0 mi Calm Calm - N/A   Clear
3:53 AM 73.9 °F - 70.0 °F 87% 30.04 in 10.0 mi Calm Calm - N/A   Clear
4:53 AM 73.0 °F - 69.1 °F 87% 30.02 in 10.0 mi East 3.5 mph - N/A   Clear
5:53 AM 73.0 °F - 69.1 °F 87% 30.01 in 10.0 mi SE 3.5 mph - N/A   Clear
6:53 AM 73.0 °F - 69.1 °F 87% 30.03 in 10.0 mi SE 3.5 mph - N/A   Clear
7:53 AM 73.4 °F - 69.8 °F 88% 30.01 in 10.0 mi SE 4.6 mph - N/A   Clear
8:53 AM 78.1 °F - 71.1 °F 79% 30.04 in 10.0 mi SSE 6.9 mph - N/A   Partly Cloudy
9:53 AM 82.9 °F 87.5 °F 71.1 °F 67% 30.04 in 10.0 mi SSE 8.1 mph - N/A   Mostly Cloudy
11:53 AM 86.0 °F 90.1 °F 69.1 °F 57% 30.03 in 10.0 mi SSE 10.4 mph - N/A   Mostly Cloudy
12:12 PM 87.8 °F 92.6 °F 69.8 °F 55% 30.00 in 10.0 mi SSE 12.7 mph - N/A   Mostly Cloudy
12:53 PM 89.1 °F 94.1 °F 70.0 °F 53% 30.01 in 10.0 mi SSE 10.4 mph - N/A   Mostly Cloudy
1:00 PM 89.6 °F 94.7 °F 69.8 °F 52% 29.99 in 10.0 mi SSE 11.5 mph - N/A   Partly Cloudy
1:53 PM 90.0 °F 94.5 °F 69.1 °F 50% 29.97 in 10.0 mi South 12.7 mph - N/A   Mostly Cloudy
2:53 PM 89.1 °F 92.9 °F 68.0 °F 50% 29.95 in 10.0 mi SE 10.4 mph 19.6 mph N/A   Scattered Clouds
3:53 PM 89.1 °F 94.1 °F 70.0 °F 53% 29.93 in 10.0 mi South 12.7 mph - N/A   Mostly Cloudy
4:53 PM 89.1 °F 94.1 °F 70.0 °F 53% 29.91 in 10.0 mi South 9.2 mph - N/A   Scattered Clouds
5:27 PM 82.4 °F 88.2 °F 73.4 °F 74% 29.89 in 1.8 mi SW 4.6 mph - 0.06 in Rain Heavy Rain
5:34 PM 80.6 °F 85.4 °F 73.4 °F 79% 29.89 in 4.0 mi SW 3.5 mph - 0.07 in Rain Light Rain
5:53 PM 80.1 °F 84.5 °F 73.9 °F 81% 29.91 in 10.0 mi Calm Calm - 0.07 in   Overcast
6:53 PM 81.0 °F 87.3 °F 75.9 °F 85% 29.91 in 10.0 mi Calm Calm - N/A   Scattered Clouds
7:53 PM 79.0 °F - 75.0 °F 88% 29.91 in 10.0 mi Calm Calm - N/A   Overcast
8:53 PM 79.0 °F - 72.0 °F 79% 29.91 in 10.0 mi SSE 5.8 mph - N/A   Scattered Clouds
9:53 PM 79.0 °F - 72.0 °F 79% 29.92 in 10.0 mi SSE 5.8 mph - 0.00 in Rain Light Rain
10:53 PM 77.0 °F - 72.0 °F 84% 29.95 in 10.0 mi Calm Calm - 0.01 in Thunderstorm Mostly Cloudy
11:09 PM 77.0 °F - 71.6 °F 83% 29.93 in 10.0 mi Calm Calm - N/A   Mostly Cloudy
11:19 PM 77.0 °F - 73.4 °F 89% 29.93 in 5.0 mi Calm Calm - 0.01 in Rain , Thunderstorm Rain
11:31 PM 77.0 °F - 73.4 °F 89% 29.93 in 10.0 mi Calm Calm - 0.02 in Rain Light Rain
11:53 PM 77.0 °F - 73.0 °F 88% 29.94 in 10.0 mi Calm Calm - 0.03 in Rain Light Rain